This is the latest recevied weather packets stored in our database for station/object N3FWE. If no packets are shown the sender has not sent any weather packets the latest 10 day(s).
| Time | Temp. | Humidity | Pressure | Rain* | Wind** | Luminosity | Snow |
|---|---|---|---|---|---|---|---|
| 1777590613 | 12.78° C | 62% | 1012.4 hPa | 0 mm | - | - | - |
| 1777590014 | 12.78° C | 61% | 1012.1 hPa | 0 mm | - | - | - |
| 1777589413 | 13.33° C | 60% | 1012 hPa | 0 mm | - | - | - |
| 1777588813 | 13.89° C | 61% | 1011.8 hPa | 0 mm | - | - | - |
| 1777588216 | 13.89° C | 61% | 1011.5 hPa | 0 mm | - | - | - |
| 1777587613 | 13.89° C | 63% | 1011.4 hPa | 0 mm | - | - | - |
| 1777587013 | 13.33° C | 67% | 1011.3 hPa | 0 mm | - | - | - |
| 1777586414 | 13.33° C | 68% | 1011.2 hPa | 0 mm | - | - | - |
| 1777585813 | 13.33° C | 68% | 1011 hPa | 0 mm | - | - | - |
| 1777585213 | 13.33° C | 69% | 1011 hPa | 0 mm | - | - | - |
| 1777584613 | 13.33° C | 68% | 1010.9 hPa | 0 mm | - | - | - |
| 1777584013 | 13.89° C | 68% | 1010.8 hPa | 0 mm | - | - | - |
| 1777583413 | 13.89° C | 67% | 1010.6 hPa | 0 mm | - | - | - |
| 1777582813 | 13.89° C | 66% | 1010.4 hPa | 0 mm | - | - | - |
| 1777582213 | 13.89° C | 66% | 1010.3 hPa | 0 mm | - | - | - |
| 1777581614 | 13.89° C | 65% | 1010.2 hPa | 0 mm | - | - | - |
| 1777581013 | 15° C | 65% | 1010 hPa | 0 mm | - | - | - |
| 1777580413 | 16.11° C | 63% | 1009.7 hPa | 0 mm | - | - | - |
| 1777579813 | 16.11° C | 62% | 1009.6 hPa | 0 mm | - | - | - |
| 1777579213 | 15.56° C | 62% | 1009.5 hPa | 0 mm | - | - | - |
| 1777578613 | 15.56° C | 63% | 1009.4 hPa | 0 mm | - | - | - |
| 1777578013 | 16.11° C | 60% | 1009.2 hPa | 0 mm | - | - | - |
| 1777577413 | 16.11° C | 60% | 1009.3 hPa | 0 mm | - | - | - |
| 1777576813 | 15.56° C | 58% | 1009.3 hPa | 0 mm | - | - | - |
| 1777576213 | 16.67° C | 55% | 1009.2 hPa | 0 mm | - | - | - |
* Rain latest hour (hover to see other rain measurements)
** Current wind speed in m/s (hover to see current wind gust speed)